period_start,C,m1,H,J0,J1,J2,J3,J4,J5,JA,JB,JC,JD,JJ,JK,JN,#
2017-08-12 00:00:17,-0.00,9.62,0.00,22.07,26.14,29.14,14.32,67.86,1014.18,2033.91,1140.98,1598.98,1728.68,600.16,596.61,34.43,0000 0000 0000 0000 000000
2017-08-12 00:05:18,0.01,9.62,0.00,22.07,26.15,29.15,14.25,67.82,1014.18,2033.90,1140.97,1598.95,1728.46,599.83,596.39,34.48,0000 0000 0000 0000 000000
2017-08-12 00:10:19,-0.01,9.62,0.00,22.07,26.15,29.15,14.31,67.86,1014.18,2033.78,1140.95,1598.92,1728.30,599.91,596.48,34.53,0000 0000 0000 0000 000000
2017-08-12 00:15:21,0.02,9.62,0.00,22.09,26.15,29.18,14.27,67.78,1014.18,2033.72,1140.82,1598.87,1728.12,600.00,596.46,34.58,0000 0000 0000 0000 000000
2017-08-12 00:20:22,-0.01,9.62,0.00,22.09,26.15,29.17,14.25,67.92,1014.18,2033.45,1140.55,1598.69,1728.08,599.98,596.39,34.63,0000 0000 0000 0000 000000
2017-08-12 00:25:23,0.05,9.62,0.00,22.09,26.16,29.18,14.20,67.94,1014.18,2033.35,1140.25,1598.54,1728.04,599.95,596.39,34.68,0000 0000 0000 0000 000000
2017-08-12 00:30:25,-0.02,9.62,0.00,22.10,26.17,29.17,14.29,68.00,1014.17,2033.20,1140.07,1598.38,1728.02,599.78,596.19,34.73,0000 0000 0000 0000 000000
2017-08-12 00:35:26,0.01,9.62,0.00,22.12,26.17,29.19,14.37,67.97,1014.16,2033.15,1140.06,1598.21,1728.00,600.32,596.73,34.78,0000 0000 0000 0000 000000
2017-08-12 00:40:27,0.00,9.62,0.00,22.12,26.17,29.19,14.33,67.93,1014.04,2033.17,1140.03,1598.16,1728.01,600.02,596.46,34.83,0000 0000 0000 0000 000000
2017-08-12 00:45:28,-0.00,9.62,0.00,22.12,26.19,29.20,14.25,68.03,1013.88,2033.10,1140.01,1598.10,1728.01,599.68,595.93,34.88,0000 0000 0000 0000 000000
2017-08-12 00:50:29,0.00,9.62,0.00,22.14,26.20,29.19,14.26,67.84,1013.83,2033.09,1140.00,1598.07,1728.00,599.51,595.69,34.93,0000 0000 0000 0000 000000
2017-08-12 00:55:31,0.00,9.62,0.00,22.14,26.20,29.20,14.27,68.03,1013.82,2033.12,1140.00,1598.09,1728.00,599.92,595.99,34.98,0000 0000 0000 0000 000000
2017-08-12 01:00:32,-0.00,9.62,0.00,22.14,26.20,29.22,14.29,67.97,1013.72,2033.04,1140.00,1598.04,1728.00,599.91,596.12,35.03,0000 0000 0000 0000 000000
2017-08-12 01:05:33,-0.00,9.62,0.00,22.15,26.21,29.22,14.25,67.78,1013.73,2033.05,1140.00,1598.02,1728.00,599.81,595.82,35.08,0000 0000 0000 0000 000000
2017-08-12 01:10:34,-0.00,9.62,0.00,22.16,26.22,29.22,14.27,67.83,1013.71,2033.03,1139.99,1598.03,1728.00,600.20,596.22,35.13,0000 0000 0000 0000 000000
2017-08-12 01:15:35,0.00,9.62,0.00,22.16,26.22,29.24,14.24,67.89,1013.70,2033.01,1139.98,1598.01,1728.00,599.74,595.82,35.18,0000 0000 0000 0000 000000
2017-08-12 01:20:37,0.00,9.62,0.00,22.16,26.22,29.26,14.22,67.74,1013.69,2033.01,1139.93,1598.00,1728.00,599.91,595.99,35.23,0000 0000 0000 0000 000000
2017-08-12 01:25:38,0.04,9.63,0.00,22.17,26.23,29.22,14.30,67.80,1013.69,2033.00,1139.59,1598.00,1728.00,600.13,596.12,35.29,0000 0000 0000 0000 000000
2017-08-12 01:30:39,0.02,9.63,0.00,22.18,26.24,29.24,14.23,67.92,1013.70,2033.00,1139.27,1598.00,1727.99,599.88,595.94,35.34,0000 0000 0000 0000 000000
2017-08-12 01:35:41,0.01,9.63,0.00,22.18,26.25,29.24,14.27,67.69,1013.69,2033.00,1139.09,1598.00,1727.98,599.83,595.80,35.39,0000 0000 0000 0000 000000
2017-08-12 01:40:42,0.00,9.63,0.00,22.19,26.25,29.27,14.31,67.77,1013.69,2033.00,1139.03,1598.00,1727.98,600.21,596.08,35.44,0000 0000 0000 0000 000000
2017-08-12 01:45:43,-0.00,9.63,0.00,22.19,26.25,29.26,14.29,67.88,1013.69,2033.00,1139.01,1597.99,1727.97,600.13,596.07,35.49,0000 0000 0000 0000 000000
2017-08-12 01:50:45,0.00,9.63,0.00,22.20,26.25,29.26,14.33,67.53,1013.69,2033.00,1139.00,1597.99,1727.96,600.07,595.97,35.54,0000 0000 0000 0000 000000
2017-08-12 01:55:46,0.00,9.63,0.00,22.20,26.27,29.29,14.31,67.82,1013.69,2033.00,1139.00,1597.98,1727.96,600.35,596.28,35.59,0000 0000 0000 0000 000000
2017-08-12 02:00:47,0.00,9.63,0.00,22.22,26.27,29.28,14.22,67.88,1013.69,2033.00,1138.99,1597.97,1727.93,599.99,595.85,35.64,0000 0000 0000 0000 000000
2017-08-12 02:05:48,0.00,9.63,0.00,22.23,26.27,29.29,14.26,67.91,1013.69,2033.00,1138.99,1597.98,1727.85,599.98,595.79,35.69,0000 0000 0000 0000 000000
2017-08-12 02:10:49,0.00,9.63,0.00,22.24,26.27,29.29,14.31,68.01,1013.69,2033.00,1138.99,1597.98,1727.66,600.24,596.09,35.74,0000 0000 0000 0000 000000
2017-08-12 02:15:50,0.01,9.63,0.00,22.24,26.29,29.29,14.20,67.98,1013.68,2033.00,1138.99,1597.95,1727.38,599.78,595.74,35.79,0000 0000 0000 0000 000000
2017-08-12 02:20:51,0.00,9.63,0.00,22.24,26.30,29.29,14.25,67.59,1013.63,2033.00,1138.97,1597.94,1727.40,599.71,595.61,35.84,0000 0000 0000 0000 000000
2017-08-12 02:25:53,0.03,9.63,0.00,22.24,26.30,29.33,14.27,67.68,1013.51,2033.00,1138.87,1597.81,1727.20,600.05,595.74,35.89,0000 0000 0000 0000 000000
2017-08-12 02:30:54,0.01,9.63,0.00,22.27,26.30,29.32,14.26,67.67,1013.38,2033.00,1138.77,1597.82,1727.15,600.17,595.78,35.94,0000 0000 0000 0000 000000
2017-08-12 02:35:55,0.00,9.63,0.00,22.26,26.30,29.32,14.28,67.87,1013.24,2033.00,1138.75,1597.77,1727.06,600.14,595.59,35.99,0000 0000 0000 0000 000000
2017-08-12 02:40:56,0.04,9.63,0.00,22.27,26.32,29.33,14.22,67.86,1013.22,2032.99,1138.52,1597.51,1727.01,600.02,595.47,36.04,0000 0000 0000 0000 000000
2017-08-12 02:45:57,0.03,9.63,0.00,22.27,26.32,29.31,14.21,67.78,1013.21,2032.99,1138.22,1597.52,1727.03,599.86,595.36,36.09,0000 0000 0000 0000 000000
2017-08-12 02:50:59,-0.01,9.64,0.00,22.27,26.32,29.32,14.27,67.76,1013.21,2032.99,1138.23,1597.53,1727.03,600.03,595.57,36.14,0000 0000 0000 0000 000000
2017-08-12 02:56:00,0.01,9.64,0.00,22.27,26.32,29.35,14.24,67.75,1013.20,2032.99,1138.22,1597.43,1727.01,599.81,595.35,36.20,0000 0000 0000 0000 000000
2017-08-12 03:01:01,0.01,9.64,0.00,22.27,26.34,29.36,14.24,68.02,1013.20,2032.98,1138.10,1597.33,1727.01,599.85,595.33,36.25,0000 0000 0000 0000 000000
2017-08-12 03:06:02,0.01,9.64,0.00,22.28,26.35,29.37,14.27,67.74,1013.20,2032.98,1138.06,1597.28,1727.00,599.80,595.23,36.30,0000 0000 0000 0000 000000
2017-08-12 03:11:03,0.01,9.64,0.00,22.28,26.35,29.37,14.22,67.84,1013.20,2032.99,1138.02,1597.16,1727.00,599.98,595.42,36.35,0000 0000 0000 0000 000000
2017-08-12 03:16:05,0.00,9.64,0.00,22.29,26.35,29.37,14.27,67.72,1013.20,2032.98,1138.01,1597.08,1727.00,600.02,595.47,36.40,0000 0000 0000 0000 000000
2017-08-12 03:21:06,-0.00,9.64,0.00,22.29,26.35,29.37,14.29,67.84,1013.20,2032.98,1138.00,1597.08,1727.00,599.84,595.26,36.45,0000 0000 0000 0000 000000
2017-08-12 03:26:07,0.00,9.64,0.00,22.30,26.37,29.35,14.20,67.83,1013.20,2032.98,1138.00,1597.06,1727.00,599.97,595.34,36.50,0000 0000 0000 0000 000000
2017-08-12 03:31:08,0.00,9.64,0.00,22.29,26.37,29.37,14.30,67.85,1013.20,2032.99,1138.00,1597.03,1727.00,600.22,595.66,36.55,0000 0000 0000 0000 000000
2017-08-12 03:36:09,-0.00,9.64,0.00,22.31,26.37,29.38,14.27,67.83,1013.18,2032.96,1138.00,1597.02,1726.99,599.91,595.40,36.60,0000 0000 0000 0000 000000
2017-08-12 03:41:11,0.00,9.64,0.00,22.32,26.37,29.38,14.29,67.97,1013.12,2032.97,1138.00,1597.01,1726.99,599.80,595.20,36.65,0000 0000 0000 0000 000000
2017-08-12 03:46:12,0.00,9.64,0.00,22.32,26.38,29.38,14.23,67.71,1012.94,2032.98,1138.00,1597.01,1726.99,599.69,595.04,36.70,0000 0000 0000 0000 000000
2017-08-12 03:51:13,-0.00,9.64,0.00,22.32,26.39,29.42,14.25,67.84,1012.94,2032.96,1137.99,1597.01,1726.99,599.82,595.09,36.75,0000 0000 0000 0000 000000
2017-08-12 03:56:14,-0.01,9.64,0.00,22.32,26.40,29.40,14.24,67.60,1012.83,2032.91,1137.99,1597.00,1726.99,599.96,595.09,36.80,0000 0000 0000 0000 000000
2017-08-12 04:01:15,0.01,9.64,0.00,22.32,26.40,29.41,14.20,67.70,1012.88,2032.95,1137.98,1597.00,1726.99,599.68,594.89,36.85,0000 0000 0000 0000 000000
2017-08-12 04:06:17,0.00,9.64,0.00,22.32,26.40,29.40,14.22,67.78,1012.85,2032.92,1137.93,1597.00,1726.99,599.93,595.08,36.90,0000 0000 0000 0000 000000
2017-08-12 04:11:18,-0.02,9.64,0.00,22.32,26.40,29.41,14.23,67.55,1012.78,2032.77,1137.85,1597.00,1726.98,600.07,595.25,36.95,0000 0000 0000 0000 000000
2017-08-12 04:16:19,0.06,9.64,0.00,22.32,26.42,29.42,14.22,67.38,1012.73,2032.88,1137.50,1597.00,1726.98,600.12,595.22,37.00,0000 0000 0000 0000 000000
2017-08-12 04:21:20,-0.01,9.64,0.00,22.33,26.42,29.42,14.19,67.35,1012.72,2032.74,1137.12,1597.00,1726.93,599.77,594.82,37.05,0000 0000 0000 0000 000000
2017-08-12 04:26:21,-0.03,9.64,0.00,22.33,26.42,29.43,14.22,67.56,1012.72,2032.50,1137.04,1596.99,1726.89,600.03,595.22,37.11,0000 0000 0000 0000 000000
2017-08-12 04:31:23,0.01,9.64,0.00,22.34,26.42,29.45,14.32,67.74,1012.71,2032.43,1137.03,1596.99,1726.85,600.09,595.19,37.16,0000 0000 0000 0000 000000
2017-08-12 04:36:24,0.03,9.64,0.00,22.34,26.43,29.44,14.24,67.71,1012.71,2032.55,1137.00,1596.98,1726.88,599.92,594.99,37.21,0000 0000 0000 0000 000000
2017-08-12 04:41:26,0.02,9.64,0.00,22.34,26.44,29.45,14.18,67.82,1012.71,2032.71,1137.00,1596.98,1726.73,599.82,594.81,37.26,0000 0000 0000 0000 000000
2017-08-12 04:46:27,-0.03,9.64,0.00,22.34,26.45,29.44,14.28,67.78,1012.71,2032.55,1137.00,1596.98,1726.41,600.18,595.22,37.31,0000 0000 0000 0000 000000
2017-08-12 04:51:28,0.02,9.64,0.00,22.35,26.45,29.45,14.23,67.65,1012.71,2032.56,1137.00,1596.98,1726.25,599.93,595.04,37.36,0000 0000 0000 0000 000000
2017-08-12 04:56:29,-0.00,9.64,0.00,22.36,26.45,29.46,14.27,67.83,1012.71,2032.45,1136.97,1596.95,1726.15,600.27,595.28,37.41,0000 0000 0000 0000 000000
2017-08-12 05:01:31,0.03,9.64,0.00,22.37,26.46,29.46,14.26,67.71,1012.70,2032.64,1136.97,1596.90,1726.16,600.10,595.06,37.46,0000 0000 0000 0000 000000
2017-08-12 05:06:32,-0.01,9.64,0.00,22.37,26.47,29.45,14.30,67.78,1012.63,2032.63,1136.91,1596.84,1726.12,600.02,594.82,37.51,0000 0000 0000 0000 000000
2017-08-12 05:11:33,0.02,9.64,0.00,22.38,26.47,29.46,14.26,67.72,1012.56,2032.47,1136.77,1596.70,1726.05,600.13,594.98,37.56,0000 0000 0000 0000 000000
2017-08-12 05:16:34,0.05,9.65,0.00,22.38,26.47,29.45,14.19,67.57,1012.53,2032.29,1136.37,1596.30,1726.01,599.58,594.41,37.61,0000 0000 0000 0000 000000
2017-08-12 05:21:35,0.00,9.65,0.00,22.39,26.48,29.47,14.32,67.82,1012.36,2032.15,1136.09,1596.09,1726.00,600.39,595.07,37.66,0000 0000 0000 0000 000000
2017-08-12 05:26:36,0.01,9.65,0.00,22.39,26.49,29.48,14.18,67.84,1012.35,2032.13,1136.01,1596.06,1726.00,599.78,594.71,37.71,0000 0000 0000 0000 000000
2017-08-12 05:31:37,0.00,9.65,0.00,22.39,26.50,29.49,14.26,67.88,1012.32,2032.06,1136.01,1596.02,1726.00,599.85,594.70,37.76,0000 0000 0000 0000 000000
2017-08-12 05:36:39,-0.00,9.65,0.00,22.41,26.50,29.48,14.21,67.79,1012.24,2032.06,1136.00,1596.01,1725.99,600.08,594.76,37.81,0000 0000 0000 0000 000000
2017-08-12 05:41:40,-0.00,9.65,0.00,22.42,26.50,29.50,14.27,67.96,1012.25,2032.04,1136.00,1596.00,1725.98,600.25,594.85,37.86,0000 0000 0000 0000 000000
2017-08-12 05:46:42,0.00,9.65,0.00,22.44,26.52,29.52,14.28,67.92,1012.24,2032.05,1135.99,1596.00,1725.97,599.92,594.60,37.91,0000 0000 0000 0000 000000
2017-08-12 05:51:43,-0.00,9.65,0.00,22.44,26.52,29.52,14.21,67.98,1012.23,2032.02,1135.99,1596.00,1725.92,599.95,594.52,37.96,0000 0000 0000 0000 000000
2017-08-12 05:56:44,0.01,9.65,0.00,22.44,26.52,29.53,14.24,67.90,1012.22,2032.01,1135.99,1595.99,1725.74,599.99,594.59,38.01,0000 0000 0000 0000 000000
2017-08-12 06:01:46,0.01,9.65,0.00,22.45,26.53,29.53,14.31,67.92,1012.22,2032.00,1135.98,1595.98,1725.41,600.05,594.67,38.07,0000 0000 0000 0000 000000
2017-08-12 06:06:47,0.01,9.65,0.00,22.46,26.55,29.53,14.19,68.08,1012.22,2032.00,1135.94,1595.97,1725.08,599.95,594.50,38.12,0000 0000 0000 0000 000000
2017-08-12 06:11:48,0.02,9.65,0.00,22.47,26.55,29.53,14.26,67.61,1012.22,2032.00,1135.82,1595.95,1725.02,599.83,594.42,38.17,0000 0000 0000 0000 000000
2017-08-12 06:16:49,0.03,9.65,0.00,22.49,26.55,29.55,14.24,67.72,1012.22,2032.00,1135.58,1595.75,1725.01,600.15,594.51,38.22,0000 0000 0000 0000 000000
2017-08-12 06:21:50,0.03,9.65,0.00,22.49,26.57,29.56,14.26,67.71,1012.22,2032.00,1135.37,1595.58,1725.00,600.05,594.46,38.27,0000 0000 0000 0000 000000
2017-08-12 06:26:52,0.04,9.65,0.00,22.49,26.57,29.58,14.22,67.67,1012.21,2032.00,1135.18,1595.27,1725.00,599.52,594.02,38.32,0000 0000 0000 0000 000000
2017-08-12 06:31:53,0.01,9.66,0.00,22.51,26.57,29.57,14.24,67.76,1012.19,2032.00,1135.04,1595.10,1725.00,600.00,594.41,38.37,0000 0000 0000 0000 000000
2017-08-12 06:36:54,0.00,9.66,0.00,22.52,26.57,29.59,14.26,67.72,1012.19,2032.00,1135.01,1595.04,1725.00,600.18,594.58,38.42,0000 0000 0000 0000 000000
2017-08-12 06:41:56,0.00,9.66,0.00,22.52,26.59,29.57,14.22,67.75,1012.13,2032.00,1135.00,1595.00,1724.98,599.79,594.19,38.47,0000 0000 0000 0000 000000
2017-08-12 06:46:57,0.00,9.66,0.00,22.54,26.60,29.59,14.18,67.62,1012.03,2032.00,1135.00,1595.00,1724.98,599.75,593.97,38.52,0000 0000 0000 0000 000000
2017-08-12 06:51:58,0.01,9.66,0.00,22.55,26.60,29.61,14.25,67.78,1011.85,2032.00,1134.99,1595.00,1724.85,600.04,594.22,38.57,0000 0000 0000 0000 000000
2017-08-12 06:56:59,0.01,9.66,0.00,22.56,26.61,29.60,14.26,67.59,1011.88,2032.00,1134.99,1595.00,1724.79,600.24,594.39,38.62,0000 0000 0000 0000 000000
2017-08-12 07:02:01,0.02,9.66,0.00,22.57,26.62,29.62,14.17,67.69,1011.78,2032.00,1134.98,1595.00,1724.29,600.02,594.28,38.67,0000 0000 0000 0000 000000
2017-08-12 07:07:02,0.01,9.66,0.00,22.58,26.62,29.64,14.27,67.57,1011.75,2031.99,1134.94,1594.99,1724.05,600.19,594.22,38.72,0000 0000 0000 0000 000000
2017-08-12 07:12:03,0.01,9.66,0.00,22.59,26.63,29.62,14.24,67.57,1011.76,2031.98,1134.83,1594.95,1724.01,599.77,593.82,38.77,0000 0000 0000 0000 000000
2017-08-12 07:17:05,0.01,9.66,0.00,22.59,26.65,29.63,14.23,67.46,1011.75,2031.98,1134.77,1594.89,1724.00,600.15,594.17,38.82,0000 0000 0000 0000 000000
2017-08-12 07:22:06,0.04,9.66,0.00,22.60,26.65,29.65,14.23,67.63,1011.74,2031.97,1134.39,1594.83,1724.00,600.02,594.05,38.87,0000 0000 0000 0000 000000
2017-08-12 07:27:07,0.04,9.66,0.00,22.60,26.65,29.68,14.23,67.63,1011.74,2031.98,1134.17,1594.54,1724.00,600.04,593.91,38.93,0000 0000 0000 0000 000000
2017-08-12 07:32:08,0.03,9.67,0.00,22.62,26.67,29.69,14.21,67.67,1011.73,2031.96,1134.03,1594.11,1723.98,600.03,593.96,38.98,0000 0000 0000 0000 000000
2017-08-12 07:37:10,0.00,9.67,0.00,22.63,26.67,29.68,14.24,67.58,1011.73,2031.92,1134.02,1594.02,1723.92,600.00,593.87,39.03,0000 0000 0000 0000 000000
2017-08-12 07:42:11,0.00,9.67,0.00,22.64,26.68,29.68,14.19,67.85,1011.73,2031.93,1134.01,1594.01,1723.82,600.01,593.84,39.08,0000 0000 0000 0000 000000
2017-08-12 07:47:13,0.00,9.67,0.00,22.65,26.70,29.68,14.28,67.84,1011.73,2031.88,1134.00,1594.00,1723.53,599.98,593.91,39.13,0000 0000 0000 0000 000000
2017-08-12 07:52:14,0.02,9.67,0.00,22.65,26.70,29.71,14.26,67.58,1011.73,2031.86,1134.00,1594.00,1723.17,599.89,593.76,39.18,0000 0000 0000 0000 000000
2017-08-12 07:57:15,-0.02,9.67,0.00,22.67,26.71,29.71,14.24,67.75,1011.73,2031.80,1134.00,1594.00,1723.06,600.31,594.24,39.23,0000 0000 0000 0000 000000
2017-08-12 08:02:17,-0.04,9.67,0.00,22.67,26.72,29.72,14.26,67.69,1011.73,2031.42,1133.98,1594.00,1723.01,599.88,593.67,39.28,0000 0000 0000 0000 000000
2017-08-12 08:07:18,-0.03,9.66,0.00,22.68,26.72,29.73,14.23,67.66,1011.73,2031.20,1133.95,1593.98,1723.00,600.06,593.87,39.33,0000 0000 0000 0000 000000
2017-08-12 08:12:19,0.03,9.67,0.00,22.69,26.73,29.73,14.23,67.75,1011.71,2031.16,1133.70,1593.80,1722.99,599.86,593.60,39.38,0000 0000 0000 0000 000000
2017-08-12 08:17:20,0.05,9.67,0.00,22.69,26.75,29.75,14.20,67.70,1011.72,2031.06,1133.31,1593.41,1722.95,599.76,593.54,39.43,0000 0000 0000 0000 000000
2017-08-12 08:22:21,0.03,9.67,0.00,22.69,26.75,29.76,14.21,67.70,1011.71,2031.12,1133.13,1593.27,1722.93,600.16,593.84,39.48,0000 0000 0000 0000 000000
2017-08-12 08:27:22,0.03,9.67,0.00,22.70,26.75,29.77,14.22,67.56,1011.63,2031.05,1133.02,1593.08,1722.64,600.40,594.16,39.53,0000 0000 0000 0000 000000
2017-08-12 08:32:24,0.02,9.67,0.00,22.70,26.77,29.77,14.26,67.54,1011.55,2031.05,1133.00,1593.03,1722.25,600.23,593.95,39.58,0000 0000 0000 0000 000000
2017-08-12 08:37:25,0.00,9.67,0.00,22.71,26.77,29.78,14.26,67.70,1011.51,2031.01,1133.00,1593.00,1722.03,599.89,593.49,39.63,0000 0000 0000 0000 000000
2017-08-12 08:42:27,0.00,9.67,0.00,22.72,26.78,29.79,14.21,67.71,1011.40,2031.02,1133.00,1593.00,1722.02,599.96,593.48,39.68,0000 0000 0000 0000 000000
2017-08-12 08:47:28,-0.00,9.67,0.00,22.72,26.79,29.80,14.14,67.66,1011.41,2031.01,1133.00,1593.00,1722.00,599.85,593.50,39.73,0000 0000 0000 0000 000000
2017-08-12 08:52:29,0.00,9.67,0.00,22.72,26.80,29.81,14.23,67.88,1011.46,2031.00,1132.99,1593.00,1722.00,600.09,593.66,39.79,0000 0000 0000 0000 000000
2017-08-12 08:57:31,0.00,9.67,0.00,22.72,26.80,29.78,14.21,67.83,1011.35,2031.00,1132.97,1592.99,1721.99,600.03,593.60,39.84,0000 0000 0000 0000 000000
2017-08-12 09:02:32,0.01,9.67,0.00,22.73,26.81,29.82,14.20,67.89,1011.27,2031.00,1132.88,1592.96,1721.99,600.05,593.53,39.89,0000 0000 0000 0000 000000
2017-08-12 09:07:33,0.04,9.68,0.00,22.74,26.82,29.81,14.25,67.74,1011.26,2031.00,1132.42,1592.95,1721.98,599.75,593.13,39.94,0000 0000 0000 0000 000000
2017-08-12 09:12:34,0.03,9.68,0.00,22.74,26.82,29.83,14.20,67.63,1011.26,2031.00,1132.12,1592.86,1721.97,600.00,593.42,39.99,0000 0000 0000 0000 000000
2017-08-12 09:17:36,0.04,9.68,0.00,22.75,26.82,29.83,14.18,67.39,1011.26,2031.00,1132.03,1592.60,1721.76,599.86,593.28,40.04,0000 0000 0000 0000 000000
2017-08-12 09:22:37,0.07,9.68,0.00,22.74,26.84,29.83,14.18,67.51,1011.25,2031.00,1131.98,1592.03,1721.06,599.93,593.45,40.09,0000 0000 0000 0000 000000
2017-08-12 09:27:38,0.02,9.68,0.00,22.75,26.85,29.85,14.19,67.52,1011.25,2031.00,1131.81,1591.96,1720.95,600.16,593.43,40.14,0000 0000 0000 0000 000000
2017-08-12 09:32:40,0.06,9.69,0.00,22.76,26.85,29.85,14.23,67.49,1011.25,2030.99,1131.28,1591.86,1720.81,600.08,593.50,40.19,0000 0000 0000 0000 000000
2017-08-12 09:37:41,0.08,9.69,0.00,22.77,26.85,29.87,14.22,67.87,1011.25,2030.99,1131.04,1591.39,1720.42,600.21,593.64,40.24,0000 0000 0000 0000 000000
2017-08-12 09:42:42,0.03,9.69,0.00,22.77,26.87,29.85,14.23,68.13,1011.24,2030.98,1131.02,1591.09,1720.03,599.84,593.25,40.29,0000 0000 0000 0000 000000
2017-08-12 09:47:43,0.00,9.69,0.00,22.77,26.87,29.87,14.19,67.76,1011.24,2030.99,1131.00,1591.02,1720.01,599.86,593.26,40.34,0000 0000 0000 0000 000000
2017-08-12 09:52:44,0.00,9.69,0.00,22.79,26.87,29.88,14.23,67.86,1011.23,2030.99,1131.00,1591.00,1720.00,600.13,593.46,40.39,0000 0000 0000 0000 000000
2017-08-12 09:57:45,0.00,9.69,0.00,22.79,26.88,29.89,14.24,67.91,1011.24,2030.99,1130.99,1591.00,1720.00,600.24,593.47,40.44,0000 0000 0000 0000 000000
2017-08-12 10:02:47,0.00,9.69,0.00,22.79,26.90,29.89,14.23,67.99,1011.22,2030.99,1130.95,1590.98,1719.98,600.18,593.43,40.49,0000 0000 0000 0000 000000
2017-08-12 10:07:48,0.50,9.71,0.00,22.79,26.90,29.89,14.26,67.95,1011.06,2030.98,1129.50,1589.07,1718.00,600.13,593.26,40.54,0000 0000 0000 0000 000000
2017-08-12 10:12:49,0.08,9.72,0.00,22.79,26.90,29.90,14.23,67.68,1010.92,2030.98,1128.56,1588.04,1717.01,600.14,593.20,40.59,0000 0000 0000 0000 000000
2017-08-12 10:17:51,2.08,9.76,0.00,22.80,26.90,29.91,14.24,67.78,1010.82,2030.96,1124.01,1581.97,1710.56,600.03,593.06,40.64,0000 0000 0000 0000 000000
2017-08-12 10:22:52,1.04,9.88,0.00,22.80,26.92,29.91,14.21,67.92,1010.79,2030.93,1117.13,1571.58,1699.86,600.15,593.22,40.69,0000 0000 0000 0000 000000
2017-08-12 10:27:54,0.06,9.89,0.17,22.80,26.92,29.90,14.22,67.83,1010.77,2030.94,1116.86,1571.02,1699.05,599.93,592.95,40.75,0000 0000 0000 0000 000000
2017-08-12 10:32:55,0.06,9.89,1.00,22.81,26.92,29.92,14.25,67.94,1010.76,2030.93,1116.26,1571.00,1699.00,600.30,593.32,40.80,0000 0000 0000 0000 000000
2017-08-12 10:37:56,0.00,9.89,1.00,22.82,26.92,29.93,14.20,67.88,1010.76,2030.91,1116.02,1570.99,1699.00,599.85,592.74,40.85,0000 0000 0000 0000 000000
2017-08-12 10:42:57,0.02,9.89,1.00,22.83,26.94,29.91,14.23,67.83,1010.76,2030.93,1116.00,1570.89,1698.93,599.91,592.85,40.90,0000 0000 0000 0000 000000
2017-08-12 10:47:58,0.06,9.89,1.00,22.84,26.95,29.93,14.14,67.78,1010.76,2030.83,1116.00,1570.30,1698.34,599.80,592.62,40.95,0000 0000 0000 0000 000000
2017-08-12 10:53:00,0.01,9.89,1.00,22.84,26.95,29.93,14.16,67.55,1010.76,2030.66,1115.99,1570.01,1698.01,599.56,592.25,41.00,0000 0000 0000 0000 000000
2017-08-12 10:58:01,-0.00,9.89,0.80,22.84,26.95,29.96,14.16,67.76,1010.75,2030.55,1115.71,1570.00,1698.00,599.83,592.64,41.05,0000 0000 0000 0000 000000
2017-08-12 11:03:02,0.08,9.90,0.00,22.84,26.96,29.96,14.30,67.95,1010.76,2030.67,1115.19,1569.98,1697.96,599.90,592.82,41.10,0000 0000 0000 0000 000000
2017-08-12 11:08:03,0.02,9.90,0.00,22.84,26.97,29.95,14.24,67.71,1010.74,2030.52,1115.02,1569.80,1697.42,599.92,592.84,41.15,0000 0000 0000 0000 000000
2017-08-12 11:13:05,0.07,9.90,0.00,22.84,26.97,29.97,14.17,67.69,1010.71,2030.53,1115.00,1569.29,1697.03,599.85,592.74,41.20,0000 0000 0000 0000 000000
2017-08-12 11:18:06,-0.01,9.90,0.00,22.84,26.97,29.99,14.19,67.77,1010.66,2030.32,1114.99,1569.02,1697.00,599.91,592.93,41.25,0000 0000 0000 0000 000000
2017-08-12 11:23:07,-0.01,9.90,0.00,22.85,26.97,29.94,14.20,67.74,1010.65,2030.26,1114.97,1569.00,1696.99,600.02,592.92,41.30,0000 0000 0000 0000 000000
2017-08-12 11:28:09,0.05,9.90,0.00,22.87,26.98,29.97,14.14,67.48,1010.57,2030.17,1114.60,1568.98,1696.75,599.96,592.65,41.35,0000 0000 0000 0000 000000
2017-08-12 11:33:10,0.07,9.91,0.00,22.86,27.00,29.99,14.24,67.80,1010.40,2030.12,1114.08,1568.74,1696.17,600.32,593.01,41.40,0000 0000 0000 0000 000000
2017-08-12 11:38:11,0.04,9.91,0.00,22.87,27.00,29.97,14.21,67.72,1010.31,2030.06,1114.01,1568.12,1696.01,600.34,592.76,41.45,0000 0000 0000 0000 000000
2017-08-12 11:43:12,0.00,9.91,0.00,22.87,27.00,29.98,14.20,67.59,1010.31,2030.05,1114.00,1568.00,1696.00,600.26,592.74,41.50,0000 0000 0000 0000 000000
2017-08-12 11:48:13,0.00,9.91,0.00,22.87,27.00,29.99,14.26,67.82,1010.29,2030.03,1113.99,1568.00,1695.98,600.29,592.85,41.55,0000 0000 0000 0000 000000
2017-08-12 11:53:15,0.02,9.91,0.00,22.87,27.02,30.00,14.19,67.77,1010.29,2030.04,1113.97,1567.97,1695.78,599.99,592.60,41.60,0000 0000 0000 0000 000000
2017-08-12 11:58:16,0.04,9.91,0.00,22.88,27.02,30.01,14.23,67.41,1010.28,2030.05,1113.93,1567.84,1695.17,600.16,592.62,41.66,0000 0000 0000 0000 000000
2017-08-12 12:03:17,0.07,9.92,0.00,22.89,27.02,30.01,14.22,67.38,1010.27,2030.02,1113.77,1567.24,1695.00,599.98,592.53,41.71,0000 0000 0000 0000 000000
2017-08-12 12:08:19,0.04,9.92,0.00,22.90,27.02,30.02,14.19,67.53,1010.27,2030.01,1113.36,1567.03,1694.98,600.53,593.03,41.76,0000 0000 0000 0000 000000
2017-08-12 12:13:20,0.03,9.92,0.00,22.90,27.04,30.01,14.18,67.53,1010.28,2030.00,1113.12,1567.00,1694.82,600.25,592.63,41.81,0000 0000 0000 0000 000000
2017-08-12 12:18:22,0.03,9.92,0.00,22.90,27.05,30.01,14.20,67.81,1010.27,2030.01,1113.03,1567.00,1694.20,600.12,592.52,41.86,0000 0000 0000 0000 000000
2017-08-12 12:23:23,0.01,9.92,0.00,22.91,27.05,30.02,14.15,67.65,1010.27,2030.01,1113.01,1566.98,1694.03,599.85,592.32,41.91,0000 0000 0000 0000 000000
2017-08-12 12:28:24,0.02,9.92,0.00,22.90,27.05,30.03,14.14,67.72,1010.27,2030.01,1113.00,1566.83,1694.01,599.78,592.24,41.96,0000 0000 0000 0000 000000
2017-08-12 12:33:25,0.04,9.93,0.00,22.91,27.05,30.04,14.17,67.48,1010.27,2030.00,1112.99,1566.26,1694.00,599.86,592.45,42.01,0000 0000 0000 0000 000000
2017-08-12 12:38:26,0.00,9.93,0.00,22.92,27.07,30.04,14.13,67.61,1010.27,2030.00,1112.99,1566.03,1694.00,599.91,592.42,42.06,0000 0000 0000 0000 000000
2017-08-12 12:43:28,0.01,9.93,0.00,22.92,27.07,30.03,14.18,67.94,1010.27,2030.00,1112.99,1566.00,1693.89,600.08,592.60,42.11,0000 0000 0000 0000 000000
2017-08-12 12:48:29,0.02,9.93,0.00,22.92,27.07,30.05,14.16,67.27,1010.27,2030.00,1112.99,1566.00,1693.53,599.82,592.22,42.16,0000 0000 0000 0000 000000
2017-08-12 12:53:30,0.01,9.93,0.00,22.92,27.07,30.04,14.20,67.81,1010.27,2030.00,1112.99,1565.99,1693.09,599.88,592.38,42.21,0000 0000 0000 0000 000000